Regional Weather Roundup
Issued by NWS Austin/San Antonio, TX

Current Version | Previous Version | Text Only | Print | Product List | Glossary On
Versions: 1 2 3 4 5 6 7 8 9 10 11 12 13 14 15 16 17 18 19 20 21 22 23 24 25 26 27 28 29 30 31 32 33 34 35 36 37 38 39 40 41 42 43 44 45 46 47 48 49 50
000
ASUS44 KEWX 171710
RWREWX
SOUTH TEXAS REGIONAL WEATHER ROUNDUP
NATIONAL WEATHER SERVICE AUSTIN/SAN ANTONIO TX
1200 PM CDT THU JUN 17 2021

NOTE: "FAIR" INDICATED FEW OR NO CLOUDS BELOW 12,000 FEET WITH NO
SIGNIFICANT WEATHER AND/OR OBSTRUCTIONS TO VISIBILITY.

* - THESE STATIONS ARE NOT NWS OR FAA STATIONS...AND ARE NOT SUBJECT
    TO NWS AND FAA QUALITY CONTROL.

TXZ171-172-183>190-171800-
TEXAS HILL COUNTRY AND EDWARDS PLATEAU

CITY           SKY/WX    TMP DP  RH WIND       PRES   REMARKS
JUNCTION       SUNNY     89  64  43 CALM      30.10S HX  90
*LLANO         SUNNY     88  68  51 VRB6      30.06S HX  91
BURNET         SUNNY     89  67  47 CALM      30.08F HX  92
*HORSESHOE BAY MOSUNNY   90  67  47 CALM      30.06F HX  93
*LAGO VISTA    PTSUNNY   94  66  40 CALM      30.07S HX  97
*KERRVILLE     SUNNY     85  72  63 SE8       30.09S HX  91
*FREDERICKSBRG SUNNY     86  62  44 E3        30.09S
*ROCKSPRINGS     N/A     86  61  42 MISG      30.16S
*BOERNE        PTSUNNY   84  66  54 SE6       30.07S
*CASTROVILLE   MOSUNNY   90  68  47 SE6       30.05S HX  94
HONDO          MOSUNNY   88  71  57 E3        30.04F HX  94
*UVALDE        MOSUNNY   87  70  56 E10       30.07S HX  92
DEL RIO        SUNNY     93  68  43 VRB5      30.04S HX  97
*LAUGHLIN AFB  MOSUNNY   90  65  44 E12       30.04S HX  91
*SPOFFORD      SUNNY     89  65  43 SE12      29.98S HX  91
*EAGLE PASS    SUNNY     90  64  43 VRB7G14   30.03S HX  91
CARRIZO SPRGS  SUNNY     90  68  48 E6        30.02S HX  93
$$

TXZ173-191>194-202-209-217>225-228-171800-
CENTRAL AND SOUTH CENTRAL TEXAS

CITY           SKY/WX    TMP DP  RH WIND       PRES   REMARKS
GEORGETOWN     MOSUNNY   91  69  48 SE5       30.05F HX  96
*TAYLOR        MOSUNNY   95  71  46 E5        30.03S HX 102
AUSTIN/BERGSTM MOSUNNY   90  70  51 NE7       30.01F HX  95
AUSTIN/MABRY   MOSUNNY   91  67  44 VRB3      30.03F HX  94
*PFLUGERVILLE  SUNNY     91  68  46 CALM      30.02S HX  95
SAN MARCOS     MOSUNNY   91  72  53 E5        30.03F HX  98
NEW BRAUNFELS  MOSUNNY   92  71  50 MISG      30.02S HX  98
*RANDOLPH AFB  MOSUNNY   89  71  56 SE7       30.02S HX  94
*SEGUIN        MOSUNNY   89  71  55 SE5       30.06S HX  94
SAN ANTONIO    MOSUNNY   89  70  53 SE7       30.03F HX  94
STINSON FIELD  MOSUNNY   92  73  53 E9        30.00F HX 100
*KELLY FIELD   SUNNY     91  71  52 E6G16     30.01F HX  97
*PLEASANTON    SUNNY     92  69  47 E8        30.02F HX  96
*KENEDY        SUNNY     90  70  51 E5        30.01F HX  95
*LA GRANGE     SUNNY     91  76  60 NE5       29.99F HX 103
*GIDDINGS      SUNNY     89  72  56 E6        30.02F HX  96
*GONZALES      PTSUNNY   91  74  56 E5        30.01S HX 100
$$

TXZ163>164-176>182-195>201-210>213-226-227-235-171800-
SOUTHEAST TEXAS

CITY           SKY/WX    TMP DP  RH WIND       PRES   REMARKS
COLLEGE STN    MOSUNNY   92  73  53 SE5       30.00S HX 100
*BRYAN         SUNNY     91  71  52 E3        30.01S HX  97
*CALDWELL      SUNNY     91  71  51 E5        30.01F HX  97
*CROCKETT      SUNNY     88  72  58 CALM      30.01S HX  94
*BRENHAM       SUNNY     92  73  53 NE5       30.01F HX 101
HUNTSVILLE     SUNNY     92  72  51 CALM      30.01S HX  99
CONROE         SUNNY     88  69  53 VRB3      30.01F HX  92
HOUSTON BUSH   MOSUNNY   91  67  44 E8        29.99F HX  94
HOUSTON HOBBY  MOSUNNY   93  63  36 E8        29.98S HX  94
*HOUSTON SW AP SUNNY     92  72  51 NE6       29.99F HX  99
PEARLAND       SUNNY     91  66  43 E12       30.00S HX  93
HOUSTON HOOKS  SUNNY     90  70  51 VRB3      29.99F HX  95
ELLINGTON FLD  NOT AVBL
SUGAR LAND     MOSUNNY   93  72  50 N7        29.98F HX 101
*HOUSTON EXEC  NOT AVBL
*CLEVELAND MUN SUNNY     88  65  47 CALM      30.01F HX  90
*WHARTON       MOSUNNY   89  70  53 NE5       30.00S HX  94
*COLUMBUS      FAIR      90  73  57 CALM      30.01F HX  97
*EAGLE LAKE    NOT AVBL
$$

TXZ214>216-236>238-171800-
THE UPPER TEXAS COAST

CITY           SKY/WX    TMP DP  RH WIND       PRES   REMARKS
*ORANGE        SUNNY     89  59  35 CALM      30.01F
PORT ARTHUR    SUNNY     89  66  46 E12       29.99S HX  91
GALVESTON      SUNNY     91  70  49 E14       29.99S HX  96
ANGLETON       MOSUNNY   92  72  51 NE9       29.98S HX  99
*BAY CITY      MOSUNNY   90  74  59 NE14      29.98S HX  99
PALACIOS       MOSUNNY   91  74  57 NE13G20   29.97F HX 100
$$

TXZ229>234-239>247-171800-
TEXAS COASTAL BEND AND RIO GRANDE PLAINS

CITY           SKY/WX    TMP DP  RH WIND       PRES   REMARKS
VICTORIA       MOSUNNY   91  74  57 E8        29.99S HX 100
*BEEVILLE      SUNNY     91  77  64 E6        29.99F HX 104
ROCKPORT       MOSUNNY   90  77  65 E12       29.98R HX 103
*PORT ARANSAS  SUNNY     86  76  71 NE12      30.00S HX  97
*PORT LAVACA   SUNNY     92  74  56 NE12      29.99S HX 102
*INGLESIDE     MOSUNNY   91  74  56 E8        29.98S HX 100
CORPUS CHRISTI PTSUNNY   91  73  55 E13       29.98F HX  99
CORPUS NAS     PTSUNNY   90  78  68 NE9       29.98S HX 104
*ROBSTOWN      MOSUNNY   93  74  54 E9G16     29.99F HX 102
ALICE          MOSUNNY   90  73  57 NE14      29.99S HX  98
KINGSVILLE NAS PTSUNNY   91  74  57 E10       29.99S HX 100
COTULLA        SUNNY     92  68  45 E9        30.01F HX  96
LAREDO         SUNNY     91  68  46 E9        30.00F HX  95
$$

TXZ248>255-171800-
DEEP SOUTH TEXAS

CITY           SKY/WX    TMP DP  RH WIND       PRES   REMARKS
BROWNSVILLE    CLOUDY    85  75  72 NE10      29.95F HX  93
PORT ISABEL    CLOUDY    88  74  63 NE15G24   29.96F HX  96
HARLINGEN      MOSUNNY   90  75  61 NE15      29.95F HX 100
*HEBBRONVILLE  MOSUNNY   87  57  35 E6        30.03S
MCALLEN        MOSUNNY   88  70  55 NE10      29.98S HX  93
*WESLACO       PTSUNNY   88  72  59 NE12G17   29.96F HX  95
FALFURRIAS     PTSUNNY   84  71  64 E9        29.99S
EDINBURG       LGT RAIN  83  77  82 NE10G21   29.99S HX  91
*ZAPATA        CLOUDY    94  67  42 E9G17     30.01F HX  97
$$

TXZ213>215-236>238-242>244-246-247-251-254-255-171800-
CMAN STATIONS

STATION/POSITION TIME  TEMP    WIND        PRES    WAVE
                       AIR SEA DIR/SP/G            HT/PER
                 (UTC) (F)     (DEG/KT/KT) (MB)    (FT/S)
NORTH JETTY/GLS  1630   84 85   90/ 13/ 14 1014.4
EAGLE POINT      1630   86 87   90/ 10/ 11 1015.1
MORGANS POINT    1630   86 85   80/  8/ 11 1015.6
MISSION/ARANSAS  1600   85      20/  5     1016.0
PORT O`CONNOR    1630   84 89   50/  8/  9 1015.1
PORT ARANSAS     1700   83 85   50/  9/ 10 1015.5
MALAQUITE BEACH  1630   87      10/ 11/ 14   N/A
BAFFIN BAY       1630   83 87   20/  8/ 13 1014.8
PORT ISABEL      1630   85 85   40/ 11/ 16 1015.5
$$



USA.gov is the U.S. government's official web portal to all federal, state and local government web resources and services.